Precipitable_Water
0.56 0.56 0.57 0.58 0.59 0.61 0.64 0.67 0.68 0.69 0.72 0.78 0.83 0.83 0.86 0.91 0.93 0.97 1.02 1.07 1.07 1.08 1.10 1.10 1.16 1.18 1.20 1.21 1.21 1.22 1.23 1.27 1.34 1.33 1.32 1.28 1.26 1.23 1.18 1.17 1.19 1.20 1.25 1.25 1.23 1.17 1.11 1.05 1.03 0.99 0.99 0.95
0.50 0.52 0.52 0.53 0.54 0.54 0.55 0.57 0.60 0.61 0.63 0.65 0.71 0.76 0.77 0.79 0.81 0.85 0.86 0.92 1.01 1.02 0.99 1.01 1.06 1.14 1.16 1.17 1.18 1.19 1.20 1.19 1.20 1.25 1.27 1.27 1.25 1.25 1.25 1.21 1.21 1.22 1.20 1.20 1.20 1.18 1.10 1.06 1.01 0.99 0.99 0.98
0.42 0.46 0.47 0.48 0.50 0.50 0.50 0.52 0.54 0.56 0.55 0.56 0.59 0.63 0.68 0.71 0.73 0.74 0.75 0.75 0.80 0.90 0.97 0.98 0.95 1.02 1.05 1.06 1.12 1.12 1.14 1.18 1.20 1.19 1.19 1.22 1.23 1.24 1.25 1.25 1.25 1.25 1.23 1.21 1.18 1.15 1.11 1.05 1.00 0.98 0.99 0.97
0.36 0.39 0.40 0.41 0.43 0.45 0.44 0.45 0.46 0.46 0.48 0.50 0.52 0.55 0.58 0.61 0.63 0.66 0.67 0.69 0.70 0.73 0.79 0.89 0.88 0.89 0.92 0.95 0.98 1.00 1.01 1.09 1.14 1.16 1.18 1.17 1.17 1.20 1.21 1.24 1.26 1.25 1.24 1.23 1.21 1.16 1.12 1.06 1.02 0.97 0.97 0.96
0.34 0.34 0.35 0.34 0.35 0.39 0.39 0.42 0.43 0.43 0.43 0.45 0.45 0.46 0.49 0.52 0.55 0.58 0.60 0.62 0.65 0.67 0.68 0.74 0.82 0.86 0.88 0.89 0.88 0.91 0.90 0.98 1.04 1.06 1.10 1.09 1.09 1.15 1.18 1.20 1.21 1.23 1.23 1.23 1.23 1.18 1.13 1.06 1.02 0.98 0.95 0.94
0.33 0.33 0.32 0.32 0.32 0.34 0.34 0.36 0.37 0.36 0.38 0.39 0.40 0.40 0.40 0.43 0.47 0.50 0.54 0.57 0.58 0.60 0.63 0.65 0.70 0.78 0.85 0.88 0.90 0.89 0.90 0.93 0.96 0.97 1.01 1.04 1.03 1.07 1.12 1.15 1.17 1.22 1.20 1.21 1.22 1.20 1.16 1.08 1.01 0.97 0.94 0.94
0.32 0.32 0.31 0.32 0.32 0.33 0.32 0.34 0.35 0.35 0.35 0.36 0.37 0.38 0.37 0.36 0.38 0.42 0.45 0.49 0.52 0.54 0.56 0.59 0.62 0.68 0.74 0.80 0.84 0.87 0.85 0.86 0.87 0.88 0.92 0.96 1.00 0.98 1.04 1.10 1.13 1.16 1.20 1.19 1.20 1.19 1.16 1.09 1.03 1.00 0.96 0.97
0.31 0.31 0.31 0.31 0.32 0.32 0.32 0.33 0.32 0.33 0.34 0.36 0.37 0.37 0.37 0.36 0.34 0.36 0.38 0.41 0.44 0.47 0.49 0.49 0.54 0.60 0.66 0.69 0.73 0.78 0.80 0.82 0.82 0.80 0.78 0.85 0.91 0.95 0.98 1.01 1.07 1.11 1.15 1.17 1.18 1.18 1.16 1.10 1.04 1.01 0.96 0.97
0.31 0.31 0.31 0.31 0.32 0.32 0.32 0.33 0.31 0.31 0.33 0.35 0.37 0.37 0.37 0.37 0.34 0.34 0.34 0.36 0.38 0.40 0.43 0.46 0.46 0.49 0.56 0.62 0.66 0.70 0.72 0.76 0.76 0.79 0.74 0.74 0.79 0.84 0.90 0.94 0.98 1.04 1.10 1.14 1.17 1.16 1.15 1.11 1.05 1.02 0.97 0.98
0.31 0.31 0.31 0.31 0.31 0.31 0.31 0.32 0.30 0.31 0.32 0.34 0.35 0.37 0.38 0.38 0.35 0.34 0.34 0.33 0.34 0.36 0.38 0.40 0.43 0.43 0.46 0.51 0.55 0.62 0.66 0.69 0.73 0.73 0.73 0.70 0.70 0.74 0.80 0.86 0.92 0.97 1.02 1.07 1.11 1.14 1.14 1.12 1.09 1.03 1.00 0.99
0.31 0.31 0.31 0.31 0.31 0.31 0.31 0.31 0.29 0.30 0.31 0.32 0.34 0.35 0.37 0.38 0.37 0.34 0.34 0.33 0.33 0.33 0.35 0.36 0.39 0.41 0.42 0.44 0.46 0.51 0.57 0.62 0.64 0.68 0.71 0.72 0.69 0.70 0.73 0.77 0.83 0.87 0.93 1.00 1.06 1.10 1.14 1.15 1.04 0.99 0.98 0.98
0.30 0.30 0.30 0.30 0.30 0.30 0.32 0.31 0.30 0.30 0.31 0.32 0.32 0.34 0.37 0.37 0.37 0.36 0.34 0.33 0.33 0.33 0.34 0.34 0.35 0.36 0.40 0.43 0.43 0.44 0.49 0.53 0.59 0.63 0.65 0.70 0.70 0.69 0.70 0.71 0.73 0.79 0.83 0.91 1.00 1.04 1.09 1.11 1.05 0.96 0.92 0.94
0.30 0.29 0.29 0.29 0.29 0.29 0.31 0.30 0.30 0.30 0.30 0.30 0.32 0.35 0.37 0.37 0.35 0.35 0.34 0.33 0.33 0.33 0.33 0.34 0.33 0.33 0.36 0.39 0.40 0.43 0.46 0.48 0.51 0.56 0.61 0.62 0.66 0.66 0.66 0.64 0.68 0.70 0.73 0.80 0.89 0.96 1.01 1.06 1.03 0.99 0.97 0.91
0.28 0.29 0.29 0.29 0.29 0.29 0.30 0.29 0.30 0.30 0.30 0.30 0.31 0.34 0.35 0.35 0.34 0.33 0.33 0.33 0.33 0.33 0.32 0.32 0.32 0.33 0.34 0.35 0.37 0.39 0.43 0.47 0.48 0.49 0.54 0.58 0.59 0.63 0.65 0.61 0.62 0.65 0.64 0.67 0.76 0.85 0.91 0.98 1.02 1.01 0.97 0.94
0.27 0.28 0.28 0.29 0.29 0.29 0.29 0.30 0.29 0.29 0.29 0.31 0.31 0.32 0.33 0.33 0.34 0.33 0.34 0.34 0.34 0.33 0.33 0.31 0.31 0.31 0.32 0.33 0.36 0.38 0.38 0.44 0.46 0.47 0.48 0.53 0.58 0.60 0.61 0.61 0.59 0.58 0.59 0.61 0.65 0.78 0.81 0.85 0.92 0.98 0.98 0.94
0.25 0.26 0.26 0.27 0.28 0.28 0.29 0.29 0.29 0.29 0.29 0.30 0.30 0.30 0.30 0.31 0.32 0.33 0.33 0.33 0.33 0.33 0.32 0.31 0.31 0.30 0.30 0.31 0.34 0.35 0.36 0.39 0.43 0.42 0.46 0.53 0.55 0.59 0.62 0.61 0.57 0.55 0.55 0.58 0.59 0.64 0.70 0.76 0.81 0.86 0.94 0.93
0.23 0.23 0.24 0.25 0.25 0.26 0.26 0.28 0.28 0.28 0.28 0.29 0.28 0.28 0.29 0.30 0.30 0.31 0.31 0.31 0.31 0.30 0.29 0.29 0.31 0.31 0.30 0.30 0.31 0.34 0.36 0.37 0.38 0.38 0.40 0.46 0.53 0.54 0.58 0.59 0.57 0.52 0.53 0.54 0.55 0.59 0.61 0.62 0.66 0.77 0.84 0.91
0.21 0.21 0.22 0.22 0.22 0.23 0.24 0.25 0.26 0.28 0.28 0.28 0.27 0.28 0.27 0.28 0.28 0.29 0.29 0.29 0.28 0.28 0.28 0.29 0.30 0.31 0.31 0.30 0.30 0.31 0.34 0.35 0.34 0.35 0.39 0.42 0.45 0.48 0.53 0.54 0.55 0.53 0.48 0.48 0.55 0.57 0.57 0.55 0.59 0.62 0.69 0.80
0.20 0.20 0.20 0.20 0.21 0.21 0.22 0.23 0.24 0.26 0.27 0.26 0.26 0.27 0.27 0.27 0.27 0.28 0.27 0.26 0.26 0.28 0.28 0.27 0.27 0.30 0.31 0.31 0.30 0.29 0.30 0.33 0.34 0.33 0.34 0.37 0.39 0.43 0.47 0.50 0.52 0.52 0.52 0.46 0.42 0.50 0.51 0.51 0.53 0.55 0.55 0.62
0.18 0.18 0.18 0.18 0.19 0.19 0.20 0.20 0.21 0.23 0.24 0.25 0.25 0.25 0.25 0.25 0.26 0.27 0.27 0.27 0.26 0.26 0.27 0.27 0.27 0.28 0.31 0.32 0.31 0.30 0.29 0.29 0.31 0.32 0.33 0.34 0.36 0.39 0.43 0.46 0.47 0.49 0.48 0.48 0.46 0.40 0.43 0.46 0.48 0.52 0.52 0.52
0.15 0.16 0.17 0.17 0.18 0.18 0.18 0.18 0.18 0.19 0.21 0.22 0.22 0.23 0.23 0.24 0.25 0.26 0.27 0.27 0.26 0.26 0.27 0.27 0.27 0.27 0.27 0.30 0.31 0.31 0.29 0.28 0.29 0.31 0.32 0.33 0.33 0.35 0.38 0.42 0.43 0.45 0.46 0.47 0.46 0.45 0.43 0.42 0.43 0.46 0.50 0.49
0.13 0.14 0.14 0.15 0.15 0.16 0.17 0.17 0.18 0.18 0.19 0.19 0.19 0.20 0.20 0.21 0.22 0.25 0.26 0.26 0.26 0.26 0.26 0.27 0.27 0.28 0.28 0.29 0.30 0.31 0.31 0.29 0.29 0.30 0.31 0.30 0.29 0.30 0.33 0.36 0.40 0.41 0.42 0.44 0.44 0.44 0.43 0.42 0.43 0.45 0.44 0.45
0.12 0.13 0.13 0.13 0.13 0.14 0.14 0.15 0.16 0.17 0.17 0.18 0.18 0.18 0.18 0.19 0.20 0.21 0.22 0.24 0.26 0.26 0.26 0.25 0.26 0.26 0.27 0.28 0.29 0.30 0.31 0.30 0.29 0.29 0.29 0.29 0.29 0.30 0.31 0.30 0.32 0.36 0.38 0.39 0.41 0.42 0.42 0.40 0.40 0.39 0.44 0.45
0.12 0.12 0.12 0.12 0.12 0.12 0.13 0.13 0.14 0.15 0.16 0.16 0.16 0.16 0.17 0.18 0.18 0.18 0.19 0.20 0.22 0.24 0.25 0.25 0.25 0.25 0.26 0.26 0.26 0.26 0.27 0.29 0.29 0.28 0.28 0.28 0.29 0.30 0.32 0.33 0.33 0.34 0.35 0.37 0.37 0.36 0.36 0.37 0.37 0.38 0.37 0.39
0.12 0.11 0.11 0.11 0.12 0.13 0.13 0.14 0.14 0.14 0.14 0.15 0.16 0.16 0.16 0.16 0.16 0.17 0.18 0.18 0.19 0.20 0.22 0.24 0.25 0.24 0.24 0.23 0.23 0.23 0.23 0.25 0.27 0.29 0.29 0.29 0.29 0.28 0.27 0.29 0.31 0.33 0.35 0.33 0.32 0.34 0.34 0.33 0.34 0.34 0.35 0.35
0.15 0.15 0.15 0.14 0.14 0.14 0.14 0.15 0.15 0.15 0.15 0.15 0.15 0.15 0.15 0.16 0.16 0.16 0.16 0.17 0.18 0.18 0.19 0.20 0.22 0.22 0.22 0.21 0.21 0.21 0.22 0.22 0.23 0.25 0.27 0.28 0.27 0.29 0.27 0.26 0.29 0.30 0.30 0.29 0.28 0.28 0.29 0.29 0.31 0.33 0.33 0.35
0.17 0.18 0.18 0.17 0.17 0.16 0.16 0.17 0.17 0.16 0.16 0.16 0.15 0.15 0.15 0.15 0.15 0.16 0.16 0.16 0.16 0.16 0.16 0.17 0.18 0.19 0.20 0.19 0.20 0.19 0.19 0.20 0.21 0.21 0.23 0.25 0.26 0.26 0.27 0.26 0.27 0.27 0.28 0.25 0.27 0.29 0.27 0.26 0.24 0.26 0.29 0.31
0.18 0.18 0.18 0.18 0.17 0.18 0.18 0.17 0.17 0.17 0.16 0.15 0.15 0.14 0.15 0.15 0.15 0.15 0.15 0.15 0.15 0.15 0.15 0.15 0.16 0.17 0.17 0.18 0.18 0.17 0.18 0.19 0.21 0.21 0.20 0.21 0.23 0.25 0.25 0.26 0.26 0.28 0.28 0.27 0.26 0.23 0.24 0.24 0.25 0.22 0.23 0.25
0.15 0.15 0.15 0.16 0.17 0.17 0.17 0.18 0.17 0.16 0.15 0.15 0.15 0.15 0.14 0.15 0.15 0.14 0.14 0.14 0.14 0.14 0.14 0.14 0.15 0.15 0.16 0.16 0.17 0.17 0.17 0.19 0.20 0.21 0.21 0.21 0.23 0.26 0.26 0.25 0.27 0.28 0.28 0.28 0.30 0.26 0.23 0.23 0.21 0.22 0.22 0.26
0.15 0.14 0.13 0.13 0.14 0.14 0.15 0.14 0.15 0.15 0.15 0.14 0.14 0.14 0.14 0.14 0.14 0.14 0.14 0.13 0.13 0.13 0.13 0.14 0.14 0.15 0.15 0.15 0.16 0.17 0.19 0.20 0.20 0.21 0.21 0.20 0.20 0.23 0.26 0.27 0.26 0.27 0.29 0.28 0.29 0.30 0.29 0.26 0.23 0.23 0.25 0.24
0.14 0.13 0.13 0.13 0.13 0.13 0.14 0.14 0.14 0.15 0.15 0.14 0.14 0.14 0.14 0.14 0.14 0.14 0.13 0.13 0.14 0.14 0.15 0.15 0.15 0.15 0.16 0.17 0.18 0.19 0.19 0.19 0.19 0.20 0.20 0.21 0.21 0.21 0.23 0.26 0.25 0.25 0.26 0.28 0.28 0.29 0.29 0.29 0.28 0.28 0.25 0.23
Wind_Speed
35 35 35 35 34 34 34 35 35 36 36 36 36 35 35 35 35 34 33 32 32 32 32 32 31 31 31 31 31 31 30 31 33 35 36 36 35 35 35 36 37 37 38 39 38 36 35 34 33 33 33 32
36 36 36 36 36 36 36 36 36 36 36 36 37 37 36 36 36 35 35 34 35 35 34 33 32 32 31 31 32 32 32 32 32 33 34 35 35 35 35 36 37 37 38 39 39 38 36 35 34 34 33 32
36 36 37 37 37 37 37 37 37 37 37 37 37 37 37 37 37 37 36 36 36 36 36 35 35 34 33 33 33 33 33 33 32 33 33 34 35 35 35 36 37 38 38 39 40 39 38 37 35 35 34 33
37 37 37 37 38 38 38 38 38 38 38 37 37 38 38 38 38 38 38 37 37 36 36 36 36 37 36 36 35 35 34 35 34 34 33 33 34 35 35 36 37 38 39 39 40 40 39 38 37 36 35 35
37 37 37 37 38 38 38 38 38 38 39 38 38 38 38 39 39 39 39 39 38 38 37 37 36 36 36 36 36 35 35 35 35 35 35 34 34 35 36 36 37 38 39 40 40 40 40 39 38 37 37 36
37 37 37 37 37 38 38 38 38 38 39 39 39 39 39 39 39 40 40 40 39 39 39 39 38 37 35 35 35 34 33 33 34 35 36 36 36 35 36 36 36 37 39 40 41 41 41 39 39 38 38 37
37 37 37 37 38 38 38 38 38 38 38 39 39 39 39 39 39 40 40 40 40 40 40 40 40 39 38 37 36 35 35 34 34 35 36 36 36 36 37 37 37 37 38 39 41 42 41 40 39 39 39 39
37 37 37 38 38 38 38 38 38 38 38 39 39 39 39 39 39 40 40 40 40 40 40 40 41 41 41 40 39 38 37 37 37 37 37 36 37 37 38 38 38 39 38 39 40 41 42 41 40 40 40 40
37 38 38 38 38 38 38 38 38 38 39 39 39 39 39 39 39 40 40 40 41 40 40 40 40 41 41 41 41 41 40 39 39 39 38 37 37 37 38 39 39 39 39 38 39 41 42 41 41 41 41 41
37 38 38 38 38 39 39 39 39 39 39 39 39 39 39 40 40 40 40 40 41 41 41 41 40 41 41 42 42 42 43 42 40 40 39 38 38 38 38 39 39 39 40 39 40 41 42 42 42 41 41 41
37 38 38 39 39 39 39 39 39 40 40 40 40 40 40 40 40 40 40 40 41 41 41 42 41 41 41 42 42 42 43 44 43 42 41 40 39 39 39 39 39 39 40 40 40 41 41 41 41 41 41 41
38 39 39 39 40 40 40 40 40 40 40 40 40 40 40 40 41 41 41 41 41 42 42 42 42 42 42 42 42 43 43 44 44 44 43 42 41 41 40 40 39 39 40 40 41 41 41 41 41 41 41 41
39 40 40 40 41 41 41 41 41 41 41 41 41 41 41 41 41 42 42 42 42 42 42 42 43 43 43 43 42 43 43 43 44 44 44 44 43 43 42 41 40 40 40 41 41 41 42 42 41 41 41 41
41 41 41 41 41 42 42 42 42 42 42 42 42 42 42 42 42 42 42 42 43 43 43 43 43 44 44 44 44 43 43 43 43 44 45 45 45 44 44 44 43 41 41 41 41 41 42 43 43 42 41 40
42 42 42 42 42 42 42 42 42 43 43 43 43 43 43 43 43 43 43 43 43 43 44 44 44 44 44 45 45 45 44 44 44 44 45 45 45 45 45 45 45 44 43 42 42 42 43 43 43 43 42 42
42 42 42 42 42 42 42 43 43 43 43 43 44 44 44 44 44 44 44 44 44 44 44 45 45 45 45 45 45 45 46 45 45 45 45 46 45 45 46 46 45 45 45 45 44 43 43 44 44 44 44 44
42 42 43 43 43 43 43 43 43 44 44 44 44 45 45 45 45 45 45 45 45 46 46 46 46 46 46 46 46 46 47 47 47 46 46 46 46 45 45 46 45 44 44 46 46 45 44 44 44 45 45 45
44 44 44 44 43 43 43 43 44 44 44 45 45 45 45 46 46 46 46 46 47 47 47 47 47 47 47 46 47 47 47 48 48 47 47 47 47 47 46 46 47 46 45 45 47 48 47 46 45 45 45 45
45 45 45 45 45 45 45 45 45 45 45 45 45 45 46 46 47 47 47 47 48 48 48 48 48 48 48 48 48 48 48 48 49 48 48 48 48 48 47 48 48 48 48 48 48 49 49 49 48 47 47 47
46 46 47 47 47 46 46 46 46 46 46 46 46 46 46 47 47 48 48 48 49 49 49 49 49 49 49 49 49 49 49 49 49 49 49 49 49 49 49 49 49 48 49 49 50 50 50 50 50 49 49 49
46 46 47 48 47 47 47 47 47 47 47 47 47 47 47 48 48 48 49 49 49 49 49 49 50 50 50 50 50 50 50 50 50 50 50 50 50 51 51 50 50 49 49 49 49 49 49 50 51 51 51 50
44 45 46 46 47 47 47 47 48 48 48 48 48 48 49 49 49 49 50 50 50 50 50 50 50 50 50 51 51 51 51 51 51 51 51 51 52 52 53 53 52 51 50 50 50 50 49 49 50 51 52 52
41 42 43 44 45 46 46 47 47 47 47 48 48 49 49 49 49 50 50 51 51 51 51 51 51 51 51 51 51 52 52 52 51 51 52 52 52 53 53 54 55 54 53 52 52 52 51 51 51 51 52 52
37 38 40 41 43 43 44 45 45 46 47 47 48 48 49 49 50 50 51 51 51 52 52 52 52 52 51 52 52 53 53 53 53 52 52 53 53 54 54 54 55 55 56 55 55 54 53 53 53 53 53 53
33 34 35 37 39 40 41 42 43 44 45 46 47 48 49 49 50 51 51 51 52 52 52 53 54 54 53 53 54 54 54 55 55 54 54 54 54 55 55 55 55 55 55 56 57 56 55 54 54 54 54 54
30 30 31 33 34 36 38 39 40 41 42 44 46 47 48 49 50 50 51 51 52 52 53 54 54 55 55 56 56 56 56 56 56 56 56 56 56 56 56 56 56 55 55 56 56 56 56 56 55 54 55 55
30 30 31 31 31 32 33 35 38 39 40 41 43 44 46 48 49 50 50 51 51 52 53 54 55 56 56 57 57 57 58 58 57 57 57 57 57 57 57 57 57 56 56 56 56 56 56 55 55 54 54 54
32 32 32 32 32 31 31 32 34 36 38 39 41 42 44 45 47 48 50 51 51 52 53 55 56 56 57 57 58 58 58 59 59 58 58 58 58 58 58 58 58 57 57 57 56 56 55 55 54 54 54 53
33 33 33 33 33 32 32 32 32 33 35 37 39 41 42 43 45 46 48 50 51 53 54 55 56 56 57 57 57 58 58 59 59 59 59 60 60 60 60 59 59 58 58 58 58 57 56 55 54 55 54 53
33 33 34 34 34 33 33 33 33 33 33 34 36 38 40 42 44 45 47 48 50 51 53 54 55 56 56 56 57 57 57 58 59 60 60 61 61 61 61 61 60 60 59 59 59 59 58 57 55 54 53 53
31 31 32 32 33 33 33 33 33 33 33 33 34 35 36 39 41 43 45 46 48 49 51 52 54 55 56 56 57 58 58 59 59 60 60 61 62 62 62 62 62 61 60 60 60 59 59 59 59 57 55 54
Wind_Direction
263 263 262 262 262 262 261 260 260 258 257 256 255 255 254 254 255 254 254 254 254 253 252 251 251 251 251 250 248 249 249 247 246 244 244 244 243 242 240 239 238 237 236 235 235 236 236 237 239 240 239 240
263 263 263 262 262 262 262 261 260 260 259 258 256 255 254 254 253 253 253 253 254 254 254 253 252 252 250 249 249 249 249 249 248 245 244 244 243 243 241 239 238 237 237 236 236 236 236 238 239 239 239 240
264 264 263 263 262 262 262 261 260 260 260 259 258 256 255 254 253 252 252 252 252 253 253 253 253 252 251 250 251 251 250 250 249 246 245 245 244 244 242 240 239 238 237 236 236 236 237 238 238 238 239 240
265 265 265 264 263 262 262 262 260 260 260 260 259 258 257 255 254 253 252 252 252 251 251 252 252 252 252 252 253 253 252 250 248 247 246 246 246 245 244 242 240 238 238 237 236 236 237 237 237 238 239 239
267 266 266 266 265 263 263 262 261 261 260 260 259 258 257 256 255 254 253 253 252 251 251 251 250 250 249 250 251 251 252 250 248 248 247 247 247 246 245 244 242 240 239 237 237 237 237 237 237 238 239 239
267 267 267 267 266 264 264 263 262 261 260 259 259 258 257 256 255 255 254 254 254 252 252 251 250 248 247 247 248 248 248 247 247 249 248 248 247 246 245 245 244 242 241 239 238 237 237 237 237 238 239 239
268 268 268 267 267 265 265 265 263 262 262 260 259 258 257 256 256 255 254 254 254 253 253 252 250 249 247 247 247 246 246 246 247 249 250 249 247 246 246 245 244 243 243 241 239 238 237 237 237 238 238 239
269 269 268 268 268 266 266 265 264 264 263 261 260 259 258 257 257 255 254 253 253 253 253 252 252 251 249 247 247 247 246 247 247 248 249 248 247 247 246 245 244 243 243 242 240 238 237 237 237 237 238 238
269 269 268 268 268 267 266 265 265 264 264 262 261 260 259 258 258 256 255 254 252 251 251 252 252 251 251 249 248 248 247 248 247 247 248 247 246 246 245 244 243 242 242 243 241 238 238 238 238 238 238 238
269 269 268 268 267 266 266 265 265 264 263 262 261 260 260 259 259 258 256 255 254 252 251 250 251 251 251 250 250 249 248 248 248 247 247 247 246 245 244 243 242 242 241 242 241 239 238 238 238 237 237 238
269 269 268 267 267 266 265 265 265 264 263 262 261 259 259 259 259 259 257 257 256 254 253 251 250 251 250 249 249 249 248 248 248 248 247 247 247 245 244 243 242 242 241 241 240 239 238 238 237 237 236 237
270 269 268 267 267 266 265 265 264 263 263 262 260 259 258 259 259 258 258 257 256 256 255 253 252 251 250 249 249 249 248 247 247 248 248 248 247 246 245 243 242 242 241 240 239 239 237 237 238 237 237 237
271 270 269 268 267 266 264 264 264 263 262 261 260 258 257 258 258 258 257 257 256 256 255 254 254 252 251 250 249 248 247 246 246 246 247 248 247 247 245 243 243 243 242 241 239 238 237 236 237 237 238 237
272 271 270 269 267 266 264 264 264 263 262 261 259 258 258 258 257 257 256 256 256 255 255 255 254 253 252 251 251 249 247 246 245 245 246 246 246 246 245 243 243 242 242 242 241 239 237 237 237 238 238 238
273 271 270 269 268 266 265 264 263 262 261 260 259 258 258 258 257 257 256 255 255 255 255 254 254 253 252 251 251 250 249 247 246 245 245 245 245 245 244 243 244 243 242 242 241 241 239 239 239 239 238 238
272 271 270 269 268 267 266 264 263 262 261 260 259 259 258 257 257 256 255 255 255 254 254 254 253 253 252 251 250 250 249 248 248 247 245 244 244 244 243 243 243 243 242 241 241 241 240 240 240 240 239 239
271 270 269 268 267 267 266 265 263 263 262 260 260 259 258 257 257 256 256 255 255 255 254 253 253 252 252 251 250 249 249 248 248 248 246 244 244 243 241 241 242 242 242 241 241 241 241 241 241 240 240 240
271 269 268 268 267 267 266 265 263 263 262 261 260 259 258 257 256 256 256 256 255 255 254 253 252 251 251 251 250 249 248 248 248 247 246 245 245 243 241 240 241 242 242 242 241 242 242 242 242 241 241 240
272 269 267 267 267 267 266 265 264 263 262 261 260 260 259 258 257 256 256 256 256 255 254 253 252 251 250 250 250 249 248 247 247 246 245 245 245 245 243 242 242 243 243 243 243 243 243 243 243 242 241 240
274 271 269 268 267 267 266 265 264 263 262 261 261 260 260 259 258 257 257 257 256 255 254 253 252 251 250 250 250 249 249 248 246 246 245 244 244 244 244 244 244 244 244 244 244 243 243 242 243 243 242 241
274 273 271 269 268 268 266 266 265 264 263 261 261 261 260 259 259 258 258 258 257 255 254 253 252 252 251 250 249 249 248 247 246 245 245 244 243 243 244 244 245 245 245 245 245 244 243 243 242 242 243 242
276 274 273 270 269 268 267 266 266 265 264 263 262 262 261 260 259 259 259 259 257 255 254 253 252 252 251 250 249 249 248 247 246 245 244 244 244 243 243 243 244 244 245 245 246 245 245 244 243 242 243 243
280 277 275 272 271 269 268 267 266 265 265 264 264 263 261 260 260 260 259 258 256 255 255 254 253 252 251 251 250 249 248 247 246 246 245 245 245 244 244 243 243 244 244 244 245 246 246 247 246 245 243 243
285 282 278 275 273 270 269 268 267 266 266 265 264 263 262 262 261 260 259 257 256 255 255 254 253 252 252 251 251 249 248 248 247 247 246 245 245 245 244 244 244 244 244 245 245 245 246 247 247 247 245 244
291 287 283 280 276 272 270 269 269 268 267 266 264 263 263 262 261 260 259 257 256 256 255 254 253 253 253 253 252 251 250 249 248 247 247 246 246 245 245 244 244 244 244 245 245 245 246 246 246 246 246 246
295 292 289 286 282 276 272 271 270 269 268 267 266 265 264 263 262 261 260 259 258 257 256 254 253 253 253 253 253 252 251 250 249 248 248 247 247 246 246 245 244 244 244 244 244 245 246 246 245 245 246 246
296 294 292 290 288 283 279 276 273 271 270 269 268 267 266 264 263 262 261 260 259 258 256 255 254 253 253 253 253 252 252 251 250 249 248 248 247 247 246 246 245 244 244 244 244 245 245 244 245 245 244 245
297 295 293 291 290 288 284 281 279 275 273 271 269 269 268 266 265 263 262 261 260 259 258 256 255 254 253 253 253 252 251 250 249 249 248 248 248 247 247 246 245 245 244 244 244 244 244 243 244 244 243 243
298 295 293 291 290 289 286 285 283 281 278 275 272 270 269 268 267 265 264 262 261 260 259 257 256 255 253 253 253 251 250 249 249 248 248 248 247 247 247 246 246 245 244 244 243 243 243 243 243 243 243 243
299 295 293 291 290 289 288 286 284 283 282 280 277 274 271 270 268 267 266 264 262 261 259 257 256 255 254 253 252 251 250 249 249 249 248 248 247 247 247 246 246 245 244 244 244 243 243 242 243 243 243 243
303 298 295 293 291 289 287 286 284 283 283 282 281 279 276 273 271 269 267 265 264 262 260 258 257 256 255 253 252 251 250 250 250 249 249 248 248 247 247 246 246 245 244 244 244 244 244 243 243 243 243 243